Regional Weather Roundup
Issued by NWS

Home | Current Version | Previous Version | Graphics & Text | Print | Product List | Glossary On
Versions: 1 2 3 4 5 6 7 8 9 10 11 12 13 14 15 16 17 18 19 20 21 22 23 24 25 26 27 28 29 30 31 32 33 34 35 36 37 38 39 40 41 42 43 44 45 46 47 48 49 50
000
ASUS43 KLMK 270510
RWRKY
KENTUCKY REGIONAL WEATHER ROUNDUP
NATIONAL WEATHER SERVICE LOUISVILLE KY
100 AM EDT FRI MAY 27 2016

NOTE "FAIR" INDICATES FEW OR NO CLOUDS BELOW 12,000 FEET
WITH NO SIGNIFICANT WEATHER AND/OR OBSTRUCTIONS TO VISIBILITY.

KYZ001>023-026-027-061>063-070>075-270600-
WESTERN AND SOUTH CENTRAL KENTUCKY

CITY           SKY/WX    TMP DP  RH WIND       PRES   REMARKS
PADUCAH        LGT RAIN  70  63  78 SW7       29.95F
HENDERSON      MOCLDY    64  61  88 CALM      29.96S
OWENSBORO      CLOUDY    67  65  93 E3        29.99R
HOPKINSVILLE   MOCLDY    67  66  97 S2        29.99R
BOWLING GREEN  CLOUDY    65  64  97 E5        29.99F
GLASGOW        CLOUDY    66  66 100 CALM      30.01R
$$

KYZ024-025-028>034-038-045-046-053-270600-
NORTH CENTRAL KENTUCKY

CITY           SKY/WX    TMP DP  RH WIND       PRES   REMARKS
LOUISVILLE/SDF CLOUDY    68  63  84 S8        30.01S
LOUISVILLE/LOU CLOUDY    66  63  90 S3        30.02S
FORT KNOX      CLOUDY    64  63  99 E5        30.01S
$$

KYZ035>037-039>044-047>052-055>060-089>105-270600-
NORTHEAST KENTUCKY

CITY           SKY/WX    TMP DP  RH WIND       PRES   REMARKS
LEXINGTON      CLOUDY    64  62  93 S6        30.04F
COVINGTON      CLOUDY    64  63  96 S5        30.03R
FRANKFORT      CLOUDY    63  61  93 E3        30.03R
$$

KYZ054-064>069-076>088-106>120-270600-
SOUTHEAST KENTUCKY

CITY           SKY/WX    TMP DP  RH WIND       PRES   REMARKS
JACKSON        MOCLDY    68  61  78 S3        30.09S
LONDON         CLOUDY    64  61  90 CALM      30.08S
SOMERSET       CLOUDY    63  63 100 CALM      30.07F
MIDDLESBORO    CLOUDY    62  61  94 CALM      30.11S
MONTICELLO     PTCLDY    64  62  93 E8        30.06F
$$





USA.gov is the U.S. government's official web portal to all federal, state and local government web resources and services.